When you browse on this site, cookies collect data to enhance your experience and personalize the content and advertising you see.
Visit our Privacy Policy to learn more. By continuing to use the site, you agree to this use of cookies and data.
  • In Hungary
  • List of Countries
  • For 7 days
  • Water Temperature
  • Satellite Maps
  • Weather Map
  • News
  • Weather Widgets
  • user-avatar
    Login

    Hourly Weather Olympia

    Today, 16 July, Tuesday

    Time Temperature Precipitation Wind Pressure Humidity
    00:00 +22°C° 0 mm 3 mps 755 mmHg 70%
    01:00 +23°C° 0 mm 2 mps 754 mmHg 66%
    02:00 +23°C° 0 mm 2 mps 754 mmHg 67%
    03:00 +23°C° 0 mm 2 mps 754 mmHg 67%
    04:00 +23°C° 0 mm 2 mps 754 mmHg 68%
    05:00 +24°C° 0 mm 2 mps 754 mmHg 61%
    06:00 +26°C° 0 mm 2 mps 754 mmHg 55%
    07:00 +29°C° 0 mm 2 mps 753 mmHg 47%
    08:00 +30°C° 0 mm 2 mps 753 mmHg 43%
    09:00 +32°C° 0 mm 2 mps 753 mmHg 39%
    10:00 +34°C° 0 mm 3 mps 753 mmHg 35%
    11:00 +34°C° 0 mm 4 mps 753 mmHg 38%
    12:00 +33°C° 0 mm 4 mps 753 mmHg 40%
    13:00 +33°C° 0 mm 5 mps 753 mmHg 42%
    14:00 +32°C° 1 mm 4 mps 753 mmHg 48%
    15:00 +30°C° 1 mm 3 mps 752 mmHg 53%
    16:00 +28°C° 1 mm 3 mps 752 mmHg 59%
    17:00 +27°C° 2.3 mm 3 mps 752 mmHg 68%
    18:00 +25°C° 2.3 mm 3 mps 752 mmHg 78%
    19:00 +22°C° 2.3 mm 3 mps 752 mmHg 87%
    20:00 +22°C° 0.2 mm 4 mps 752 mmHg 86%
    21:00 +22°C° 0.2 mm 4 mps 753 mmHg 85%
    22:00 +22°C° 0.2 mm 5 mps 753 mmHg 85%
    23:00 +21°C° 1.4 mm 5 mps 753 mmHg 86%

    Tomorrow, 17 July, Wednesday

    Time Temperature Precipitation Wind Pressure Humidity
    00:00 +21°C° 1.4 mm 5 mps 753 mmHg 87%
    01:00 +21°C° 1.4 mm 5 mps 753 mmHg 88%
    02:00 +21°C° 0.6 mm 4 mps 753 mmHg 86%
    03:00 +21°C° 0.6 mm 4 mps 753 mmHg 84%
    04:00 +21°C° 0.6 mm 4 mps 753 mmHg 82%
    05:00 +22°C° 0.2 mm 4 mps 753 mmHg 80%
    06:00 +22°C° 0.2 mm 4 mps 754 mmHg 77%
    07:00 +23°C° 0.2 mm 4 mps 754 mmHg 75%
    08:00 +26°C° 0 mm 4 mps 755 mmHg 67%
    09:00 +27°C° 0 mm 4 mps 755 mmHg 59%
    10:00 +29°C° 0 mm 4 mps 755 mmHg 52%
    11:00 +29°C° 0.2 mm 4 mps 756 mmHg 53%
    12:00 +29°C° 0.2 mm 4 mps 756 mmHg 55%
    13:00 +28°C° 0.2 mm 4 mps 756 mmHg 56%
    14:00 +28°C° 0 mm 4 mps 756 mmHg 59%
    15:00 +27°C° 0 mm 3 mps 756 mmHg 61%
    16:00 +27°C° 0 mm 2 mps 756 mmHg 63%
    17:00 +26°C° 0 mm 2 mps 756 mmHg 66%
    18:00 +25°C° 0 mm 2 mps 756 mmHg 68%
    19:00 +24°C° 0 mm 2 mps 756 mmHg 71%
    20:00 +24°C° 0 mm 3 mps 756 mmHg 73%
    21:00 +22°C° 0 mm 3 mps 757 mmHg 76%
    22:00 +22°C° 0 mm 3 mps 757 mmHg 79%
    23:00 +21°C° 0 mm 3 mps 757 mmHg 77%

    Day after tomorrow, 18 July, Thursday

    Time Temperature Precipitation Wind Pressure Humidity
    00:00 +21°C° 0 mm 2 mps 757 mmHg 76%
    01:00 +21°C° 0 mm 2 mps 756 mmHg 75%
    02:00 +21°C° 0 mm 2 mps 756 mmHg 74%
    03:00 +20°C° 0 mm 2 mps 756 mmHg 74%
    04:00 +20°C° 0 mm 2 mps 756 mmHg 73%
    05:00 +23°C° 0 mm 2 mps 756 mmHg 66%
    06:00 +25°C° 0 mm 1 mps 757 mmHg 58%
    07:00 +27°C° 0 mm 1 mps 757 mmHg 51%
    08:00 +29°C° 0 mm 1 mps 757 mmHg 46%
    09:00 +30°C° 0 mm 1 mps 757 mmHg 41%
    10:00 +32°C° 0 mm 2 mps 757 mmHg 35%
    11:00 +32°C° 0 mm 2 mps 757 mmHg 36%
    12:00 +33°C° 0 mm 3 mps 757 mmHg 36%
    13:00 +33°C° 0 mm 4 mps 757 mmHg 37%
    14:00 +33°C° 0 mm 4 mps 757 mmHg 39%
    15:00 +32°C° 0 mm 4 mps 757 mmHg 42%
    16:00 +32°C° 0 mm 4 mps 757 mmHg 44%
    17:00 +29°C° 0 mm 4 mps 757 mmHg 54%
    18:00 +27°C° 0 mm 3 mps 758 mmHg 64%
    19:00 +25°C° 0 mm 3 mps 758 mmHg 74%
    20:00 +24°C° 0 mm 3 mps 758 mmHg 77%
    21:00 +24°C° 0 mm 2 mps 758 mmHg 80%
    22:00 +23°C° 0 mm 2 mps 759 mmHg 83%
    23:00 +23°C° 0 mm 2 mps 759 mmHg 83%

    19 July, Friday

    Time Temperature Precipitation Wind Pressure Humidity
    00:00 +21°C° 0 mm 2 mps 759 mmHg 84%
    01:00 +21°C° 0 mm 2 mps 759 mmHg 85%
    02:00 +21°C° 0 mm 2 mps 758 mmHg 86%
    03:00 +21°C° 0 mm 2 mps 758 mmHg 86%
    04:00 +21°C° 0 mm 2 mps 758 mmHg 87%
    05:00 +23°C° 0 mm 2 mps 758 mmHg 79%
    06:00 +25°C° 0 mm 2 mps 758 mmHg 70%
    07:00 +27°C° 0 mm 2 mps 758 mmHg 61%
    08:00 +29°C° 0 mm 2 mps 759 mmHg 55%
    09:00 +30°C° 0 mm 3 mps 759 mmHg 48%
    10:00 +33°C° 0 mm 3 mps 759 mmHg 41%
    11:00 +33°C° 0 mm 3 mps 759 mmHg 40%
    12:00 +34°C° 0 mm 4 mps 759 mmHg 40%
    13:00 +34°C° 0 mm 5 mps 759 mmHg 39%
    14:00 +33°C° 0 mm 5 mps 759 mmHg 41%
    15:00 +32°C° 0 mm 5 mps 758 mmHg 43%
    16:00 +30°C° 0 mm 5 mps 758 mmHg 44%
    17:00 +29°C° 0 mm 5 mps 758 mmHg 52%
    18:00 +27°C° 0 mm 4 mps 759 mmHg 60%
    19:00 +25°C° 0 mm 3 mps 759 mmHg 68%
    20:00 +25°C° 0 mm 3 mps 759 mmHg 73%
    21:00 +24°C° 0 mm 3 mps 759 mmHg 77%
    22:00 +23°C° 0 mm 2 mps 760 mmHg 81%
    23:00 +23°C° 0 mm 2 mps 759 mmHg 81%

    20 July, Saturday

    Time Temperature Precipitation Wind Pressure Humidity
    00:00 +23°C° 0 mm 2 mps 759 mmHg 82%
    01:00 +23°C° 0 mm 2 mps 759 mmHg 82%
    02:00 +21°C° 0 mm 2 mps 759 mmHg 81%
    03:00 +21°C° 0 mm 2 mps 759 mmHg 80%
    04:00 +21°C° 0 mm 3 mps 759 mmHg 79%
    05:00 +24°C° 0 mm 3 mps 759 mmHg 71%
    06:00 +26°C° 0 mm 3 mps 759 mmHg 63%
    07:00 +28°C° 0 mm 3 mps 759 mmHg 56%
    08:00 +30°C° 0 mm 3 mps 759 mmHg 49%
    09:00 +33°C° 0 mm 3 mps 759 mmHg 43%
    10:00 +35°C° 0 mm 4 mps 760 mmHg 37%
    11:00 +35°C° 0 mm 4 mps 760 mmHg 37%
    12:00 +35°C° 0 mm 4 mps 760 mmHg 37%
    13:00 +35°C° 0 mm 5 mps 760 mmHg 37%
    14:00 +35°C° 0 mm 5 mps 760 mmHg 39%
    15:00 +34°C° 0 mm 5 mps 759 mmHg 41%
    16:00 +33°C° 0 mm 5 mps 759 mmHg 43%
    17:00 +30°C° 0 mm 5 mps 759 mmHg 53%
    18:00 +28°C° 0 mm 5 mps 760 mmHg 62%
    19:00 +26°C° 0 mm 4 mps 760 mmHg 72%
    20:00 +25°C° 0 mm 4 mps 760 mmHg 73%
    21:00 +25°C° 0 mm 3 mps 760 mmHg 74%
    22:00 +24°C° 0 mm 3 mps 761 mmHg 75%
    23:00 +24°C° 0 mm 3 mps 760 mmHg 73%

    21 July, Sunday

    Time Temperature Precipitation Wind Pressure Humidity
    00:00 +24°C° 0 mm 3 mps 760 mmHg 72%
    01:00 +24°C° 0 mm 3 mps 760 mmHg 70%
    02:00 +24°C° 0 mm 3 mps 760 mmHg 68%
    03:00 +24°C° 0 mm 3 mps 760 mmHg 66%
    04:00 +22°C° 0 mm 3 mps 759 mmHg 64%
    05:00 +25°C° 0 mm 3 mps 760 mmHg 58%
    06:00 +28°C° 0 mm 3 mps 760 mmHg 51%
    07:00 +30°C° 0 mm 3 mps 760 mmHg 45%
    08:00 +33°C° 0 mm 3 mps 760 mmHg 39%
    09:00 +35°C° 0 mm 3 mps 760 mmHg 34%
    10:00 +37°C° 0 mm 4 mps 760 mmHg 28%
    11:00 +37°C° 0 mm 4 mps 760 mmHg 28%
    12:00 +37°C° 0 mm 4 mps 760 mmHg 28%
    13:00 +37°C° 0 mm 4 mps 760 mmHg 28%
    14:00 +37°C° 0 mm 5 mps 760 mmHg 31%
    15:00 +36°C° 0 mm 5 mps 760 mmHg 34%
    16:00 +35°C° 0 mm 5 mps 760 mmHg 37%
    17:00 +33°C° 0 mm 5 mps 760 mmHg 47%
    18:00 +29°C° 0 mm 5 mps 760 mmHg 58%
    19:00 +27°C° 0 mm 4 mps 760 mmHg 68%
    20:00 +27°C° 0 mm 4 mps 760 mmHg 67%
    21:00 +26°C° 0 mm 3 mps 760 mmHg 67%
    22:00 +26°C° 0 mm 3 mps 761 mmHg 66%
    23:00 +26°C° 0 mm 3 mps 760 mmHg 63%
    Show more